Weather in Shaoxing

China     29°59′54″N   120°34′55″E
В апреле 2022 года жителям России запретили посещать сайт meteo.paraplan.net по решению Генеральной прокуратуры. Аудитория сайта уменьшилась в 10 раз. Владельцы сайта не видят смысла в поддержке погодного сервера в таких условиях. Сайт будет закрыт в октябре.
temp.,
°C
wind,
m/s
gust,
m/s
humid.,
%
clouds,
%
prec.,
mm/h
press.,
hPa
HPBL,
m
30 september, fri
fri3023:00+21e119338 0.0 101518
02:00+21sw119694 0.0 101415
05:00+20ssw119689 0.0 101416
08:00+24s128593 0.0 1015264
11:00+30ssw136215 0.0 10131037
14:00+32ne135546 0.1 10111453
17:00+26ne368368 0.1 1012317
20:00+25ne12910 0.1 101382
1 october, sat
sat123:00+24sw11942 0.0 101315
02:00+23ssw119582 0.0 101334
05:00+23s1194100 0.0 101319
08:00+26s11787 0.0 1014236
11:00+32sse125612 0.0 1014844
14:00+34ese235031 0.0 10111336
17:00+31ese36635 0.0 1011302
20:00+27se26725 0.0 1011177
2 october, sun
sun223:00+25s23815 0.0 101191
02:00+23s23850 0.0 101180
05:00+22s23850 0.0 101172
08:00+26ssw24670 0.0 1012259
11:00+33ssw45430 0.0 1012770
14:00+35ssw34382 0.0 10101200
17:00+32se23550 0.0 101097
20:00+28sse23660 0.0 101159
3 october, mon
mon323:00+26s23714 0.0 101164
02:00+25s23812 0.0 101077
05:00+24s238668 0.0 101181
08:00+27ssw25695 0.0 1012271
11:00+34ssw34435 0.0 1012760
14:00+36ssw23380 0.0 10091276
17:00+33sse23530 0.0 100966
20:00+29sse22650 0.0 101149
4 october, tue
tue423:00+27s23700 0.0 101166
02:00+26ssw23750 0.0 100976
05:00+26wnw237599 0.0 101291
08:00+24n5985100 0.0 1016883
11:00+23n4782100 0.1 1018986
14:00+21n5783100 0.6 1019843
17:00+19n51085100 0.6 1020894
20:00+18nne4881100 0.9 1024870